This demonstration page uses our WeatherBlox Daily Observations layout. Learn more.

40.92945, -100.16068

Hourly Observations for April 4, 2017

Temp ( °F °C ) Dew Point ( °F °C ) Humidity (%) Winds ( mph kmh ) Pressure ( in mb ) Visibility ( mi km ) Precip ( " mm )
12:15 am 00:15 Clear 34 1.3 32 0.1 92 92 WNW 8 13 29.91 1013 10 16.0934 0 0
12:35 am 00:35 Clear 34 1 32 0 93 93 WNW 7 11 29.91 1013 10 16.0934 0 0
12:55 am 00:55 Clear 33 0.8 32 0 94 94 W 9 15 29.91 1013 10 16.0934 0 0
1:15 am 01:15 Clear 34 1.2 32 0.2 93 93 WNW 9 15 29.91 1013 10 16.0934 0 0
1:35 am 01:35 Clear 33 0.6 32 -0.2 94 94 NW 7 11 29.91 1013 10 16.0934 0 0
1:55 am 01:55 Clear 33 0.3 31 -0.5 94 94 NW 8 13 29.88 1012 10 16.0934 0 0
2:15 am 02:15 Clear 34 1 32 0 93 93 NW 8 13 29.91 1013 10 16.0934 0 0
2:35 am 02:35 Clear 34 1 32 0 93 93 NW 7 11 29.91 1013 10 16.0934 0 0
2:55 am 02:55 Clear 33 0.7 31 -0.4 92 92 WNW 6 9 29.91 1013 10 16.0934 0 0
3:15 am 03:15 Clear 33 0.3 31 -0.8 92 92 WNW 9 15 29.91 1013 10 16.0934 0 0
3:35 am 03:35 Clear 33 0.5 31 -0.5 93 93 NW 9 15 29.91 1013 10 16.0934 0 0
3:55 am 03:55 Clear 33 0.7 32 -0.2 94 94 NW 7 11 29.91 1013 10 16.0934 0 0
4:15 am 04:15 Clear 33 0.6 32 -0.2 94 94 WNW 6 9 29.91 1013 10 16.0934 0 0
4:35 am 04:35 Clear 33 0.7 32 -0.1 94 94 WNW 7 11 29.91 1013 10 16.0934 0 0
4:55 am 04:55 Clear 33 0.8 32 0 94 94 WNW 9 15 29.91 1013 10 16.0934 0 0
5:15 am 05:15 Clear 34 1 32 0 93 93 WNW 9 15 29.94 1014 10 16.0934 0 0
5:35 am 05:35 Clear 34 1 32 0 93 93 NW 9 15 29.94 1014 10 16.0934 0 0
5:55 am 05:55 Clear 34 1.3 32 0.1 92 92 NNW 10 17 29.91 1013 10 16.0934 0 0
6:15 am 06:15 Clear 35 1.5 32 0.2 91 91 NW 9 15 29.94 1014 10 16.0934 0 0
6:35 am 06:35 Clear 35 1.5 32 0.2 91 91 NW 7 11 29.97 1015 10 16.0934 0 0
6:55 am 06:55 Partly Cloudy 35 1.5 33 0.3 92 92 WNW 7 11 30 1016 10 16.0934 0 0
7:15 am 07:15 Mostly Cloudy 35 1.5 32 0.2 91 91 WNW 6 9 30 1016 10 16.0934 0 0
7:35 am 07:35 Partly Cloudy 35 1.5 33 0.3 92 92 WNW 6 9 30 1016 10 16.0934 0 0
7:55 am 07:55 Sunny 35 1.5 33 0.5 93 93 NW 9 15 30 1016 10 16.0934 0 0
8:15 am 08:15 Sunny 35 1.7 33 0.6 93 93 NW 9 15 30 1016 10 16.0934 0 0
8:35 am 08:35 Sunny 36 2.1 34 1 93 93 NNW 8 13 30 1016 10 16.0934 0 0
8:55 am 08:55 Sunny 37 2.8 35 1.5 91 91 NNW 9 15 30 1016 10 16.0934 0 0
9:15 am 09:15 Sunny 39 3.7 36 2.3 91 91 N 10 17 29.97 1015 10 16.0934 0 0
9:35 am 09:35 Sunny 40 4.7 37 2.7 87 87 N 12 19 29.97 1015 10 16.0934 0 0
9:55 am 09:55 Sunny 42 5.5 38 3.1 85 85 N 14 22 29.97 1015 10 16.0934 0 0
10:15 am 10:15 Sunny 43 5.9 38 3.2 83 83 N 12 19 29.97 1015 10 16.0934 0 0
10:35 am 10:35 Sunny 44 6.8 38 3.6 80 80 N 13 20 29.94 1014 10 16.0934 0 0
10:55 am 10:55 Sunny 46 8 39 4.1 77 77 N 10 17 29.94 1014 10 16.0934 0 0
11:15 am 11:15 Sunny 48 8.8 39 3.9 72 72 N 12 19 29.94 1014 10 16.0934 0 0
11:35 am 11:35 Sunny 50 10 38 3.3 63 63 NNE 15 24 29.91 1013 10 16.0934 0 0
11:55 am 11:55 Sunny 51 10.5 38 3.2 61 61 NNE 15 24 29.91 1013 10 16.0934 0 0
12:15 pm 12:15 Sunny 51 10.6 37 3 60 60 NNE 14 22 29.91 1013 10 16.0934 0 0
12:35 pm 12:35 Sunny 52 11 36 2.3 55 55 NNE 20 31 29.91 1013 10 16.0934 0 0
12:55 pm 12:55 Partly Cloudy 52 11 36 2.1 55 55 NNE 18 30 29.91 1013 10 16.0934 0 0
1:15 pm 13:15 Partly Cloudy 52 11.2 35 1.4 51 51 NNE 20 31 29.91 1013 10 16.0934 0 0
1:35 pm 13:35 Mostly Cloudy 53 11.8 35 1.8 51 51 NNE 17 28 29.91 1013 10 16.0934 0 0
1:55 pm 13:55 Partly Cloudy 53 11.9 35 1.8 50 50 NNE 16 26 29.88 1012 10 16.0934 0 0
2:15 pm 14:15 Partly Cloudy 54 12.1 35 1.6 49 49 NNE 16 26 29.85 1011 10 16.0934 0 0
2:35 pm 14:35 Partly Cloudy 54 12 34 1.3 48 48 NNE 15 24 29.85 1011 10 16.0934 0 0
2:55 pm 14:55 Partly Cloudy 54 12.4 34 0.9 46 46 NNE 17 28 29.85 1011 10 16.0934 0 0
3:15 pm 15:15 Mostly Cloudy 54 12.1 33 0.7 46 46 NE 16 26 29.85 1011 10 16.0934 0 0
3:35 pm 15:35 Cloudy 54 12 34 1.1 48 48 NNE 13 20 29.85 1011 10 16.0934 0 0
3:55 pm 15:55 Cloudy 53 11.5 34 1.2 49 49 NE 14 22 29.88 1012 10 16.0934 0 0
4:15 pm 16:15 Cloudy 53 11.5 34 0.9 48 48 NNE 15 24 29.88 1012 10 16.0934 0 0
4:35 pm 16:35 Cloudy 53 11.6 34 0.9 48 48 NE 17 28 29.88 1012 10 16.0934 0 0
4:55 pm 16:55 Cloudy 53 11.7 34 1 48 48 NE 21 33 29.88 1012 10 16.0934 0 0
5:15 pm 17:15 Cloudy 53 11.9 34 1 48 48 NE 16 26 29.83 1010 10 16.0934 0 0
5:30 pm 17:30 Cloudy 53 11.7 33 0.8 47 47 NNE 16 26 29.88 1012 10 16.0934 0 0
5:55 pm 17:55 Cloudy 54 12.1 33 0.3 45 45 NNE 15 24 29.85 1011 10 16.0934 0 0
6:15 pm 18:15 Mostly Cloudy 54 12.1 32 0 44 44 NNE 17 28 29.85 1011 10 16.0934 0 0
6:35 pm 18:35 Cloudy 53 11.8 32 0 45 45 NNE 14 22 29.88 1012 10 16.0934 0 0
6:55 pm 18:55 Cloudy 53 11.5 32 0.1 46 46 NNE 13 20 29.91 1013 10 16.0934 0 0
7:15 pm 19:15 Cloudy 52 11.3 33 0.6 48 48 NNE 14 22 29.91 1013 10 16.0934 0 0
7:35 pm 19:35 Cloudy 52 11.1 32 -0.1 46 46 NNE 13 20 29.91 1013 10 16.0934 0 0
7:55 pm 19:55 Cloudy 51 10.6 31 -0.5 46 46 NNE 14 22 29.91 1013 10 16.0934 0 0
8:15 pm 20:15 Partly Cloudy 49 9.2 32 -0.2 52 52 N 10 17 29.97 1015 10 16.0934 0 0
8:35 pm 20:35 Partly Cloudy 46 8 32 0 57 57 N 9 15 29.97 1015 10 16.0934 0 0
8:55 pm 20:55 Mostly Cloudy 45 7.2 32 0 61 61 N 9 15 29.97 1015 10 16.0934 0 0
9:15 pm 21:15 Partly Cloudy 45 7.2 32 0 61 61 N 10 17 29.97 1015 10 16.0934 0 0
9:35 pm 21:35 Mostly Cloudy 46 7.5 32 0 59 59 N 12 19 30 1016 10 16.0934 0 0
9:55 pm 21:55 Partly Cloudy 45 7 32 -0.1 61 61 N 9 15 30 1016 10 16.0934 0 0
10:15 pm 22:15 Partly Cloudy 44 6.8 32 0 62 62 NNW 12 19 30.03 1017 10 16.0934 0 0
10:35 pm 22:35 Clear 45 7.1 33 0.6 64 64 N 16 26 30.03 1017 10 16.0934 0 0
10:55 pm 22:55 Partly Cloudy 46 7.6 35 1.7 67 67 N 17 28 30.03 1017 10 16.0934 0 0
11:15 pm 23:15 Partly Cloudy 45 7.1 35 1.5 68 68 N 14 22 30.03 1017 10 16.0934 0 0
11:35 pm 23:35 Clear 44 6.8 35 1.5 69 69 N 15 24 30.03 1017 10 16.0934 0 0
11:55 pm 23:55 Clear 44 6.5 35 1.5 71 71 N 16 26 30.06 1018 10 16.0934 0 0

Powered by AerisWeather